ARCCUBE 1 (RS25S)

Last updated on Thu Nov 27 2025 00:03:10 GMT+0000 (Coordinated Universal Time)

1 57205U 23091AR 25330.04508387 .02560824 15364-1 23058-2 0 9999 2 57205 97.5006 46.0293 0007327 297.5164 62.5377 16.16662325134595
UTC large
Height (km)
Speed (km/s)
/
Latitude / Longitude
Inclination (degrees)
Orbital Period (minutes)
Azimuth
Elevation
Range (km)
Doppler Factor

Next 0 passes for location: London (51.5072 / 0.1276)

Sorry there are no passes over London.
ARCCUBE 1 (RS25S)